Flag for Canada Weather past 2 weeks in Guelph, Ontario, Canada

Now
30 °F

Ice fog.


Feels Like: 27 °F
Forecast: 33 / 56 °F
Wind: 3 mph from North

Location: Waterloo Well

Current Time: Oct 24, 2014 at 6:33:47 AM

Latest Report: Oct 24, 2014 at 6:04 AM


Visibility: 1 mi

Pressure: 30.07 "Hg

Humidity: 100%

Dew point: 30 °F

Location of GuelphLocation

Historic Weather in Guelph — Graph

°F

Guelph temperature yesterday

Maximum temperature yesterday: 61 °F (at 2:00 PM)
Minimum temperature yesterday: 32 °F (at 6:00 AM)
Average temperature yesterday: 44 °F

Past Weeks' High & Low Weather Summary

 TemperatureHumidityPressure
High72 °F (Oct 14, 11:00 AM)100% (Oct 10, 11:00 PM)30.30 "Hg (Oct 10, 11:00 PM)
Low27 °F (Oct 12, 5:01 AM)44% (Oct 12, 4:00 PM)29.49 "Hg (Oct 17, 3:00 PM)
Average48 °F85%29.95 "Hg
* Reported Oct 9 5:00 AM — Oct 24 5:02 AM, Guelph, Weather by CustomWeather, © 2014

Note: Actual official high and low records may vary slightly from our data, if they occured in-between our weather recording intervals... More about our weather records

Advertising

Guelph weather history for previous 24 hours

 ConditionsComfort  
Time TempWeatherWind HumidityBarometerVisibility
5:02 AM
Oct 24
32 °FIce fog.7 mph100%30.07 "Hg2 mi
4:00 AM30 °FIce fog.5 mph100%30.06 "Hg1 mi
3:56 AM30 °FIce fog.5 mph100%30.07 "Hg1 mi
3:00 AM34 °FFog.5 mph100%30.07 "Hg2 mi
2:59 AM34 °FFog.5 mph100%30.07 "Hg3 mi
2:00 AM34 °FFog.5 mph100%30.07 "Hg5 mi
1:00 AM36 °FClear.6 mph93%30.08 "Hg9 mi
12:00 AM36 °FClear.7 mph100%30.08 "Hg9 mi
11:00 PM
Oct 23
37 °FClear.5 mph93%30.09 "Hg9 mi
10:00 PM41 °FClear.3 mph93%30.10 "Hg9 mi
9:00 PM45 °FClear.7 mph87%30.10 "Hg9 mi
8:00 PM48 °FClear.9 mph76%30.10 "Hg9 mi
7:00 PM48 °FSunny.7 mph76%30.10 "Hg9 mi
6:00 PM54 °FSunny.8 mph67%30.09 "Hg9 mi
5:00 PM57 °FSunny.14 mph55%30.08 "Hg9 mi
4:00 PM59 °FSunny.13 mph55%30.10 "Hg9 mi
3:00 PM59 °FSunny.12 mph55%30.11 "Hg9 mi
2:00 PM61 °FSunny.12 mph52%30.12 "Hg9 mi
1:00 PM59 °FSunny.9 mph55%30.15 "Hg9 mi
12:00 PM57 °FSunny.10 mph59%30.17 "Hg9 mi
11:00 AM52 °FSunny.9 mph67%30.19 "Hg9 mi
10:00 AM46 °FSunny.7 mph82%30.21 "Hg9 mi
9:00 AM39 °FSunny.6 mph93%30.21 "Hg9 mi
8:00 AM36 °FClear.5 mph93%30.21 "Hg9 mi
7:00 AM34 °FClear.7 mph93%30.22 "Hg9 mi
6:04 AM32 °FIce fog.3 mph100%30.23 "Hg2 mi
6:00 AM32 °FIce fog.3 mph100%30.22 "Hg4 mi
Weather by CustomWeather, © 2014

See weather overviewHow to use our weather pages